Location: Newark
(35.5300°N, 14.3000°E)
Time: 09:33:00
(UTC+00:00)

A-11 Canister half - Visible Passes

Search period start: 18 November 2019 00:00
Search period end: 28 November 2019 00:00
Orbit: 1527 x 1682 km, 47.3° (Epoch: 17 November)

Date Brightness Start Highest point End Pass type
(mag) Time Alt. Az. Time Alt. Az. Time Alt. Az.
18 Nov 9.0 17:12:48 10° NW 17:22:26 87° SW 17:31:47 10° SE visible
18 Nov 10.5 19:19:16 10° WNW 19:26:27 25° SW 19:30:35 19° SSW visible
19 Nov 9.0 16:51:09 10° NW 17:00:48 90° S 17:10:10 10° SE visible
19 Nov 10.5 18:57:27 10° WNW 19:04:54 27° SW 19:11:51 11° S visible
20 Nov 9.0 16:29:28 10° NW 16:39:10 87° NE 16:48:33 10° SE visible
20 Nov 10.5 18:35:39 10° WNW 18:43:20 29° SW 18:50:56 10° S visible
21 Nov 9.1 16:07:48 10° NW 16:17:32 84° NE 16:26:56 10° ESE visible
21 Nov 10.4 18:13:52 10° WNW 18:21:47 31° SW 18:29:34 10° S visible
22 Nov 10.4 17:52:05 10° WNW 18:00:13 33° SW 18:08:11 10° S visible
23 Nov 10.4 17:30:20 10° WNW 17:38:39 35° SW 17:46:48 10° S visible
24 Nov 10.4 17:08:34 10° WNW 17:17:04 37° SW 17:25:22 10° SSE visible
25 Nov 10.4 16:46:50 10° WNW 16:55:30 40° SW 17:03:57 10° SSE visible
26 Nov 10.3 16:25:06 10° WNW 16:33:55 42° SW 16:42:31 10° SSE visible
27 Nov 10.3 16:03:22 10° WNW 16:12:20 45° SW 16:21:03 10° SSE visible
